| time (UTC) | temp F | wind direction | speed MPH | gust MPH | rain 1hr in | rain 24hr in | rain mn in | humidity % | barometer mb |
| 20260902165003 | 66 | 93 | 7.0 | 18.0 | 0.00 | 0.00 | 0.00 | 63 | 1005.6 |
| 20260902164002 | 66 | 154 | 9.0 | 16.0 | 0.00 | 0.00 | 0.00 | 64 | 1005.8 |
| 20260902163502 | 65 | 125 | 7.0 | 19.0 | 0.00 | 0.00 | 0.00 | 65 | 1005.8 |
| 20260902163003 | 65 | 138 | 11.0 | 18.0 | 0.00 | 0.00 | 0.00 | 66 | 1005.9 |
| 20260902162502 | 65 | 135 | 7.0 | 13.0 | 0.00 | 0.00 | 0.00 | 66 | 1005.9 |
| 20260902162003 | 65 | 149 | 5.0 | 12.0 | 0.00 | 0.00 | 0.00 | 66 | 1005.9 |
| 20260902161504 | 65 | 148 | 4.0 | 12.0 | 0.00 | 0.00 | 0.00 | 67 | 1005.9 |
| 20260902161003 | 64 | 107 | 4.0 | 15.0 | 0.00 | 0.00 | 0.00 | 67 | 1005.9 |
| 20260902160502 | 64 | 128 | 7.0 | 15.0 | 0.00 | 0.00 | 0.00 | 68 | 1005.9 |
| 20260902160009 | 63 | 112 | 6.0 | 17.0 | 0.00 | 0.00 | 0.00 | 69 | 1005.9 |
| 20260902155503 | 63 | 138 | 7.0 | 17.0 | 0.00 | 0.00 | 0.00 | 69 | 1005.9 |
| 20260902154503 | 63 | 102 | 5.0 | 18.0 | 0.00 | 0.00 | 0.00 | 69 | 1005.9 |
| 20260902154003 | 63 | 96 | 6.0 | 12.0 | 0.00 | 0.00 | 0.00 | 69 | 1005.8 |
| 20260902153503 | 63 | 136 | 4.0 | 11.0 | 0.00 | 0.00 | 0.00 | 70 | 1005.8 |
| 20260902152503 | 63 | 166 | 8.0 | 16.0 | 0.00 | 0.00 | 0.00 | 70 | 1005.8 |
| 20260902151503 | 63 | 130 | 7.0 | 15.0 | 0.00 | 0.00 | 0.00 | 69 | 1005.8 |
| 20260902151004 | 63 | 152 | 6.0 | 16.0 | 0.00 | 0.00 | 0.00 | 69 | 1005.8 |
| 20260902150502 | 64 | 133 | 7.0 | 16.0 | 0.00 | 0.00 | 0.00 | 69 | 1005.8 |
| 20260902150003 | 64 | 132 | 7.0 | 16.0 | 0.00 | 0.00 | 0.00 | 69 | 1005.9 |
| 20260902145502 | 64 | 117 | 5.0 | 14.0 | 0.00 | 0.00 | 0.00 | 69 | 1005.9 |
| 20260902145003 | 64 | 124 | 8.0 | 14.0 | 0.00 | 0.00 | 0.00 | 69 | 1005.9 |
| 20260902144502 | 63 | 178 | 5.0 | 16.0 | 0.00 | 0.00 | 0.00 | 69 | 1005.9 |
| 20260902144003 | 63 | 131 | 6.0 | 19.0 | 0.00 | 0.00 | 0.00 | 69 | 1006.0 |
| 20260902143502 | 63 | 156 | 7.0 | 19.0 | 0.00 | 0.00 | 0.00 | 70 | 1006.1 |
| 20260902143004 | 63 | 142 | 5.0 | 19.0 | 0.00 | 0.00 | 0.00 | 70 | 1006.0 |
| 20260902142504 | 63 | 147 | 8.0 | 19.0 | 0.00 | 0.00 | 0.00 | 70 | 1005.9 |
| 20260902141504 | 62 | 137 | 8.0 | 16.0 | 0.00 | 0.00 | 0.00 | 72 | 1006.1 |
| 20260902141003 | 62 | 115 | 5.0 | 14.0 | 0.00 | 0.00 | 0.00 | 72 | 1006.0 |
| 20260902140004 | 62 | 120 | 7.0 | 18.0 | 0.00 | 0.00 | 0.00 | 72 | 1006.3 |
| 20260902135502 | 62 | 86 | 8.0 | 18.0 | 0.00 | 0.00 | 0.00 | 72 | 1006.3 |
| 20260902135004 | 62 | 124 | 4.0 | 12.0 | 0.00 | 0.00 | 0.00 | 72 | 1006.4 |
| 20260902134502 | 62 | 108 | 5.0 | 15.0 | 0.00 | 0.00 | 0.00 | 72 | 1006.5 |
| 20260902134003 | 62 | 89 | 4.0 | 15.0 | 0.00 | 0.00 | 0.00 | 72 | 1006.6 |
| 20260902133503 | 62 | 191 | 4.0 | 13.0 | 0.00 | 0.00 | 0.00 | 72 | 1006.6 |
| 20260902132502 | 62 | 159 | 5.0 | 14.0 | 0.00 | 0.00 | 0.00 | 72 | 1006.4 |
| 20260902132002 | 63 | 178 | 4.0 | 16.0 | 0.00 | 0.00 | 0.00 | 72 | 1006.4 |
| 20260902131503 | 63 | 178 | 7.0 | 16.0 | 0.00 | 0.00 | 0.00 | 71 | 1006.4 |
| 20260902131002 | 63 | 220 | 5.0 | 15.0 | 0.00 | 0.00 | 0.00 | 72 | 1006.3 |
| 20260902130503 | 62 | 133 | 5.0 | 11.0 | 0.00 | 0.00 | 0.00 | 72 | 1006.4 |
| 20260902130003 | 63 | 126 | 4.0 | 10.0 | 0.00 | 0.00 | 0.00 | 72 | 1006.2 |
| 20260902125502 | 63 | 110 | 4.0 | 11.0 | 0.00 | 0.00 | 0.00 | 72 | 1006.2 |
| 20260902124504 | 63 | 103 | 7.0 | 12.0 | 0.00 | 0.00 | 0.00 | 71 | 1006.3 |
| 20260902123004 | 63 | 168 | 5.0 | 15.0 | 0.00 | 0.00 | 0.00 | 70 | 1006.3 |
| 20260902122503 | 63 | 167 | 7.0 | 15.0 | 0.00 | 0.00 | 0.00 | 70 | 1006.2 |
| 20260902122003 | 63 | 135 | 5.0 | 13.0 | 0.00 | 0.00 | 0.00 | 70 | 1006.3 |
| 20260902121503 | 63 | 133 | 5.0 | 13.0 | 0.00 | 0.00 | 0.00 | 70 | 1006.4 |
| 20260902121004 | 63 | 108 | 3.0 | 7.0 | 0.00 | 0.00 | 0.00 | 71 | 1006.4 |
| 20260902120503 | 63 | 58 | 1.0 | 5.0 | 0.00 | 0.00 | 0.00 | 71 | 1006.5 |
| 20260902115502 | 63 | 121 | 2.0 | 8.0 | 0.00 | 0.00 | 0.00 | 70 | 1006.6 |
| 20260902115003 | 63 | 137 | 4.0 | 7.0 | 0.00 | 0.00 | 0.00 | 70 | 1006.7 |
| 20260902114503 | 63 | 122 | 3.0 | 7.0 | 0.00 | 0.00 | 0.00 | 70 | 1006.8 |
| 20260902114004 | 63 | 110 | 2.0 | 7.0 | 0.00 | 0.00 | 0.00 | 70 | 1006.8 |
| 20260902113503 | 63 | 135 | 2.0 | 10.0 | 0.00 | 0.00 | 0.00 | 70 | 1006.9 |
| 20260902112502 | 63 | 127 | 3.0 | 9.0 | 0.00 | 0.00 | 0.00 | 70 | 1007.0 |
| 20260902112003 | 63 | 139 | 4.0 | 9.0 | 0.00 | 0.00 | 0.00 | 70 | 1007.0 |
| 20260902111503 | 63 | 108 | 2.0 | 9.0 | 0.00 | 0.00 | 0.00 | 70 | 1007.0 |
| 20260902111004 | 63 | 131 | 3.0 | 15.0 | 0.00 | 0.00 | 0.00 | 69 | 1007.2 |
| 20260902110008 | 63 | 152 | 7.0 | 14.0 | 0.00 | 0.00 | 0.00 | 69 | 1007.1 |
| 20260902105503 | 63 | 123 | 4.0 | 9.0 | 0.00 | 0.00 | 0.00 | 69 | 1007.2 |
| 20260902105003 | 63 | 122 | 3.0 | 10.0 | 0.00 | 0.00 | 0.00 | 70 | 1007.2 |
| 20260902104505 | 63 | 103 | 4.0 | 8.0 | 0.00 | 0.00 | 0.00 | 70 | 1007.3 |
| 20260902104003 | 63 | 154 | 3.0 | 8.0 | 0.00 | 0.00 | 0.00 | 69 | 1007.2 |
| 20260902103503 | 63 | 178 | 2.0 | 9.0 | 0.00 | 0.00 | 0.00 | 69 | 1007.2 |
| 20260902103004 | 63 | 127 | 4.0 | 9.0 | 0.00 | 0.00 | 0.00 | 69 | 1007.2 |
| 20260902102504 | 63 | 96 | 3.0 | 7.0 | 0.00 | 0.00 | 0.00 | 70 | 1007.3 |
| 20260902102003 | 63 | 89 | 3.0 | 11.0 | 0.00 | 0.00 | 0.00 | 70 | 1007.4 |
| 20260902101503 | 63 | 129 | 6.0 | 11.0 | 0.00 | 0.00 | 0.00 | 69 | 1007.5 |
| 20260902101004 | 63 | 101 | 5.0 | 11.0 | 0.00 | 0.00 | 0.00 | 69 | 1007.5 |
| 20260902095500 | 63 | 110 | 4.0 | 8.0 | 0.00 | 0.00 | 0.00 | 70 | 1007.7 |
| 20260902094502 | 63 | 120 | 4.0 | 6.0 | 0.00 | 0.00 | 0.00 | 70 | 1007.8 |
| 20260902094003 | 63 | 135 | 2.0 | 6.0 | 0.00 | 0.00 | 0.00 | 71 | 1007.8 |
| 20260902093500 | 63 | 124 | 3.0 | 6.0 | 0.00 | 0.00 | 0.00 | 70 | 1007.8 |
| 20260902092003 | 63 | 156 | 5.0 | 10.0 | 0.00 | 0.00 | 0.00 | 70 | 1007.9 |
| 20260902091501 | 63 | 140 | 2.0 | 5.0 | 0.00 | 0.00 | 0.00 | 71 | 1008.0 |
| 20260902091000 | 63 | 147 | 2.0 | 4.0 | 0.00 | 0.00 | 0.00 | 71 | 1008.0 |
| 20260902090503 | 63 | 126 | 2.0 | 5.0 | 0.00 | 0.00 | 0.00 | 71 | 1008.0 |
| 20260902090003 | 63 | 163 | 2.0 | 12.0 | 0.00 | 0.00 | 0.00 | 71 | 1008.1 |
| 20260902085501 | 63 | 105 | 4.0 | 12.0 | 0.00 | 0.00 | 0.00 | 72 | 1008.0 |
| 20260902085003 | 63 | 108 | 4.0 | 10.0 | 0.00 | 0.00 | 0.00 | 72 | 1008.0 |
| 20260902084503 | 63 | 125 | 4.0 | 7.0 | 0.00 | 0.00 | 0.00 | 72 | 1008.2 |
| 20260902084003 | 63 | 138 | 4.0 | 8.0 | 0.00 | 0.00 | 0.00 | 72 | 1008.1 |
| 20260902083503 | 63 | 135 | 3.0 | 8.0 | 0.00 | 0.00 | 0.00 | 72 | 1008.1 |
| 20260902082004 | 63 | 145 | 5.0 | 9.0 | 0.00 | 0.00 | 0.00 | 72 | 1008.3 |
| 20260902081503 | 63 | 108 | 5.0 | 12.0 | 0.00 | 0.00 | 0.00 | 73 | 1008.2 |
| 20260902081003 | 63 | 105 | 3.0 | 12.0 | 0.00 | 0.00 | 0.00 | 73 | 1008.2 |
| 20260902080503 | 63 | 137 | 7.0 | 11.0 | 0.00 | 0.00 | 0.00 | 73 | 1008.2 |
| 20260902080003 | 64 | 103 | 3.0 | 8.0 | 0.00 | 0.00 | 0.00 | 73 | 1008.3 |
| 20260902075502 | 64 | 108 | 4.0 | 10.0 | 0.00 | 0.00 | 0.00 | 73 | 1008.3 |
| 20260902075003 | 64 | 100 | 5.0 | 10.0 | 0.00 | 0.00 | 0.00 | 73 | 1008.2 |
| 20260902074504 | 64 | 148 | 5.0 | 8.0 | 0.00 | 0.00 | 0.00 | 73 | 1008.4 |
| 20260902074001 | 64 | 122 | 4.0 | 8.0 | 0.00 | 0.00 | 0.00 | 73 | 1008.3 |
| 20260902073004 | 64 | 89 | 5.0 | 10.0 | 0.00 | 0.00 | 0.00 | 73 | 1008.4 |
| 20260902072459 | 64 | 131 | 5.0 | 11.0 | 0.00 | 0.00 | 0.00 | 73 | 1008.4 |
| 20260902071502 | 64 | 156 | 5.0 | 10.0 | 0.00 | 0.00 | 0.00 | 73 | 1008.5 |
| 20260902071000 | 64 | 63 | 4.0 | 11.0 | 0.00 | 0.00 | 0.00 | 73 | 1008.5 |
| 20260902070503 | 64 | 159 | 4.0 | 10.0 | 0.00 | 0.00 | 0.00 | 73 | 1008.5 |
| 20260902070007 | 64 | 107 | 4.0 | 10.0 | 0.00 | 0.00 | 0.00 | 74 | 1008.5 |
| 20260902065503 | 64 | 108 | 4.0 | 11.0 | 0.00 | 0.00 | 0.00 | 73 | 1008.5 |
| 20260902065005 | 64 | 162 | 5.0 | 10.0 | 0.00 | 0.00 | 0.00 | 73 | 1008.5 |
| 20260902064504 | 64 | 135 | 6.0 | 13.0 | 0.00 | 0.00 | 0.00 | 73 | 1008.4 |
| 20260902064005 | 64 | 113 | 5.0 | 13.0 | 0.00 | 0.00 | 0.00 | 73 | 1008.5 |
| 20260902063503 | 64 | 155 | 4.0 | 8.0 | 0.00 | 0.00 | 0.00 | 73 | 1008.4 |
| 20260902063004 | 64 | 307 | 3.0 | 8.0 | 0.00 | 0.00 | 0.00 | 73 | 1008.3 |
| 20260902062506 | 64 | 162 | 4.0 | 8.0 | 0.00 | 0.00 | 0.00 | 73 | 1008.3 |
| 20260902062003 | 64 | 138 | 5.0 | 10.0 | 0.00 | 0.00 | 0.00 | 73 | 1008.4 |
| 20260902061505 | 64 | 239 | 5.0 | 10.0 | 0.00 | 0.00 | 0.00 | 73 | 1008.5 |
| 20260902060504 | 64 | 98 | 3.0 | 7.0 | 0.00 | 0.00 | 0.00 | 74 | 1008.6 |
| 20260902060006 | 64 | 145 | 2.0 | 6.0 | 0.00 | 0.00 | 0.00 | 73 | 1008.7 |
| 20260902055504 | 64 | 150 | 3.0 | 9.0 | 0.00 | 0.00 | 0.00 | 74 | 1008.7 |
| 20260902055004 | 64 | 163 | 4.0 | 10.0 | 0.00 | 0.00 | 0.00 | 74 | 1008.7 |
| 20260902054504 | 65 | 296 | 4.0 | 10.0 | 0.00 | 0.00 | 0.00 | 74 | 1008.6 |
| 20260902054004 | 65 | 105 | 3.0 | 12.0 | 0.00 | 0.00 | 0.00 | 74 | 1008.8 |
| 20260902053504 | 65 | 125 | 6.0 | 12.0 | 0.00 | 0.00 | 0.00 | 74 | 1008.6 |
| 20260902053005 | 65 | 144 | 5.0 | 13.0 | 0.00 | 0.00 | 0.00 | 74 | 1008.8 |
| 20260902052504 | 65 | 128 | 5.0 | 13.0 | 0.00 | 0.00 | 0.00 | 74 | 1008.9 |
| 20260902051504 | 64 | 135 | 5.0 | 9.0 | 0.00 | 0.00 | 0.00 | 75 | 1008.8 |
| 20260902051004 | 64 | 135 | 4.0 | 8.0 | 0.00 | 0.00 | 0.00 | 76 | 1008.9 |
| 20260902050504 | 64 | 141 | 3.0 | 7.0 | 0.00 | 0.00 | 0.00 | 76 | 1009.0 |
| 20260902045504 | 64 | 147 | 2.0 | 5.0 | 0.00 | 0.00 | 0.00 | 77 | 1008.9 |
| 20260902045005 | 64 | 105 | 3.0 | 7.0 | 0.00 | 0.00 | 0.00 | 76 | 1009.0 |
| 20260902044504 | 64 | 157 | 3.0 | 7.0 | 0.00 | 0.00 | 0.00 | 76 | 1009.0 |
| 20260902044003 | 64 | 146 | 3.0 | 8.0 | 0.00 | 0.00 | 0.00 | 76 | 1008.9 |
| 20260902042504 | 64 | 129 | 3.0 | 6.0 | 0.00 | 0.00 | 0.00 | 75 | 1009.1 |
| 20260902042006 | 64 | 131 | 2.0 | 4.0 | 0.00 | 0.00 | 0.00 | 75 | 1009.1 |
| 20260902041505 | 64 | 148 | 1.0 | 5.0 | 0.00 | 0.00 | 0.00 | 75 | 1009.1 |
| 20260902041004 | 64 | 105 | 2.0 | 5.0 | 0.00 | 0.00 | 0.00 | 75 | 1009.1 |
| 20260902040503 | 64 | 72 | 2.0 | 5.0 | 0.00 | 0.00 | 0.00 | 75 | 1009.1 |
| 20260902035504 | 64 | 139 | 2.0 | 6.0 | 0.00 | 0.00 | 0.00 | 75 | 1009.0 |
| 20260902035003 | 64 | 108 | 2.0 | 6.0 | 0.00 | 0.00 | 0.00 | 74 | 1009.0 |
| 20260902034504 | 64 | 156 | 2.0 | 4.0 | 0.00 | 0.00 | 0.00 | 74 | 1009.1 |
| 20260902033503 | 64 | 68 | 2.0 | 5.0 | 0.00 | 0.00 | 0.00 | 74 | 1009.0 |
| 20260902033005 | 64 | 135 | 2.0 | 5.0 | 0.00 | 0.00 | 0.00 | 74 | 1008.9 |
| 20260902032004 | 64 | 139 | 3.0 | 5.0 | 0.00 | 0.00 | 0.00 | 74 | 1008.9 |
| 20260902031504 | 64 | 140 | 3.0 | 5.0 | 0.00 | 0.00 | 0.00 | 73 | 1008.9 |
| 20260902031004 | 64 | 135 | 2.0 | 5.0 | 0.00 | 0.00 | 0.00 | 73 | 1008.9 |
| 20260902030504 | 64 | 152 | 2.0 | 5.0 | 0.00 | 0.00 | 0.00 | 73 | 1008.9 |
| 20260902025503 | 64 | 142 | 2.0 | 6.0 | 0.00 | 0.00 | 0.00 | 73 | 1008.8 |
| 20260902024504 | 65 | 135 | 1.0 | 4.0 | 0.00 | 0.00 | 0.00 | 72 | 1008.9 |
| 20260902024004 | 65 | 148 | 2.0 | 6.0 | 0.00 | 0.00 | 0.00 | 72 | 1008.9 |
| 20260902023503 | 65 | 126 | 2.0 | 5.0 | 0.00 | 0.00 | 0.00 | 71 | 1008.9 |
| 20260902023004 | 65 | 161 | 3.0 | 5.0 | 0.00 | 0.00 | 0.00 | 71 | 1008.9 |
| 20260902022504 | 65 | 154 | 2.0 | 5.0 | 0.00 | 0.00 | 0.00 | 71 | 1008.9 |
| 20260902022004 | 65 | 108 | 2.0 | 4.0 | 0.00 | 0.00 | 0.00 | 71 | 1008.9 |
| 20260902021504 | 65 | 178 | 1.0 | 5.0 | 0.00 | 0.00 | 0.00 | 71 | 1008.9 |
| 20260902021003 | 65 | 138 | 2.0 | 5.0 | 0.00 | 0.00 | 0.00 | 71 | 1008.9 |
| 20260902020007 | 65 | 135 | 2.0 | 5.0 | 0.00 | 0.00 | 0.00 | 71 | 1009.0 |
| 20260902015505 | 65 | 115 | 2.0 | 6.0 | 0.00 | 0.00 | 0.00 | 70 | 1009.1 |
| 20260902015004 | 65 | 173 | 4.0 | 6.0 | 0.00 | 0.00 | 0.00 | 71 | 1009.1 |
| 20260902014504 | 65 | 165 | 3.0 | 10.0 | 0.00 | 0.00 | 0.00 | 72 | 1009.1 |
| 20260902014004 | 65 | 144 | 4.0 | 10.0 | 0.00 | 0.00 | 0.00 | 72 | 1009.1 |
| 20260902013503 | 65 | 120 | 3.0 | 10.0 | 0.00 | 0.00 | 0.00 | 73 | 1009.1 |
| 20260902013005 | 65 | 117 | 3.0 | 5.0 | 0.00 | 0.00 | 0.00 | 73 | 1009.0 |
| 20260902012506 | 65 | 129 | 2.0 | 5.0 | 0.00 | 0.00 | 0.00 | 74 | 1009.0 |
| 20260902012005 | 64 | 117 | 1.0 | 4.0 | 0.00 | 0.00 | 0.00 | 74 | 1009.0 |
| 20260902011505 | 64 | 314 | 1.0 | 7.0 | 0.00 | 0.00 | 0.00 | 73 | 1009.0 |
| 20260902011004 | 64 | 314 | 3.0 | 7.0 | 0.00 | 0.00 | 0.00 | 72 | 1008.9 |
| 20260902010505 | 65 | 340 | 2.0 | 5.0 | 0.00 | 0.00 | 0.00 | 72 | 1008.8 |
| 20260902005504 | 65 | 319 | 2.0 | 6.0 | 0.00 | 0.00 | 0.00 | 72 | 1009.0 |
| 20260902005004 | 65 | 257 | 2.0 | 7.0 | 0.00 | 0.00 | 0.00 | 73 | 1008.9 |
| 20260902004004 | 65 | 331 | 2.0 | 5.0 | 0.00 | 0.00 | 0.00 | 72 | 1008.9 |
| 20260902003504 | 65 | 206 | 2.0 | 7.0 | 0.00 | 0.00 | 0.00 | 72 | 1008.8 |
| 20260902002504 | 65 | 122 | 2.0 | 5.0 | 0.00 | 0.00 | 0.00 | 72 | 1008.8 |
| 20260902002003 | 65 | 126 | 1.0 | 6.0 | 0.00 | 0.00 | 0.00 | 71 | 1008.8 |
| 20260902001504 | 65 | 139 | 3.0 | 6.0 | 0.00 | 0.00 | 0.00 | 71 | 1008.8 |
| 20260902000504 | 66 | 197 | 2.0 | 5.0 | 0.00 | 0.00 | 0.00 | 70 | 1008.9 |
| 20260902000007 | 66 | 63 | 2.0 | 5.0 | 0.00 | 0.00 | 0.00 | 70 | 1008.9 |
| 20260901235503 | 66 | 296 | 2.0 | 5.0 | 0.00 | 0.00 | 0.00 | 72 | 1008.9 |
| 20260901235003 | 66 | 1 | 2.0 | 6.0 | 0.00 | 0.00 | 0.00 | 72 | 1009.0 |
| 20260901234504 | 66 | 219 | 2.0 | 6.0 | 0.00 | 0.00 | 0.00 | 73 | 1008.9 |
| 20260901234004 | 67 | 124 | 2.0 | 6.0 | 0.00 | 0.00 | 0.00 | 73 | 1008.9 |
| 20260901233503 | 67 | 212 | 2.0 | 8.0 | 0.00 | 0.00 | 0.00 | 72 | 1008.9 |
| 20260901233004 | 67 | 300 | 3.0 | 8.0 | 0.00 | 0.00 | 0.00 | 72 | 1008.9 |
| 20260901232004 | 67 | 149 | 2.0 | 9.0 | 0.00 | 0.00 | 0.00 | 69 | 1008.8 |
| 20260901231504 | 67 | 165 | 3.0 | 9.0 | 0.00 | 0.00 | 0.00 | 69 | 1008.8 |
| 20260901231004 | 68 | 147 | 3.0 | 10.0 | 0.00 | 0.00 | 0.00 | 68 | 1008.8 |
| 20260901230503 | 68 | 89 | 3.0 | 10.0 | 0.00 | 0.00 | 0.00 | 66 | 1008.8 |
| 20260901225504 | 68 | 152 | 5.0 | 12.0 | 0.00 | 0.00 | 0.00 | 67 | 1008.6 |
| 20260901225004 | 69 | 152 | 6.0 | 11.0 | 0.00 | 0.00 | 0.00 | 65 | 1008.8 |
| 20260901224504 | 70 | 178 | 3.0 | 10.0 | 0.00 | 0.00 | 0.00 | 66 | 1008.8 |
| 20260901223503 | 68 | 241 | 5.0 | 13.0 | 0.00 | 0.00 | 0.00 | 68 | 1008.8 |
| 20260901223004 | 68 | 123 | 6.0 | 11.0 | 0.00 | 0.00 | 0.00 | 68 | 1008.8 |
| 20260901222004 | 69 | 117 | 5.0 | 11.0 | 0.00 | 0.00 | 0.00 | 68 | 1008.7 |
| 20260901221004 | 69 | 121 | 3.0 | 11.0 | 0.00 | 0.00 | 0.00 | 67 | 1008.9 |
| 20260901220504 | 69 | 159 | 4.0 | 11.0 | 0.00 | 0.00 | 0.00 | 67 | 1009.1 |
| 20260901220009 | 69 | 108 | 4.0 | 10.0 | 0.00 | 0.00 | 0.00 | 69 | 1009.1 |
| 20260901215503 | 68 | 223 | 3.0 | 9.0 | 0.00 | 0.00 | 0.00 | 70 | 1009.1 |
| 20260901215004 | 67 | 349 | 4.0 | 11.0 | 0.00 | 0.00 | 0.00 | 72 | 1009.1 |
| 20260901214503 | 67 | 144 | 4.0 | 11.0 | 0.00 | 0.00 | 0.00 | 73 | 1009.1 |
| 20260901214005 | 67 | 120 | 4.0 | 11.0 | 0.00 | 0.00 | 0.00 | 72 | 1009.2 |
| 20260901213503 | 67 | 81 | 4.0 | 11.0 | 0.00 | 0.00 | 0.00 | 72 | 1009.3 |
| 20260901213005 | 67 | 286 | 3.0 | 10.0 | 0.00 | 0.00 | 0.00 | 73 | 1009.3 |
| 20260901212004 | 66 | 46 | 4.0 | 11.0 | 0.00 | 0.00 | 0.00 | 74 | 1009.3 |
| 20260901211503 | 66 | 135 | 4.0 | 11.0 | 0.00 | 0.00 | 0.00 | 73 | 1009.3 |
| 20260901211003 | 66 | 137 | 5.0 | 11.0 | 0.00 | 0.00 | 0.00 | 73 | 1009.4 |
| 20260901210503 | 66 | 144 | 3.0 | 9.0 | 0.00 | 0.00 | 0.00 | 73 | 1009.5 |
| 20260901210006 | 66 | 191 | 4.0 | 11.0 | 0.00 | 0.00 | 0.00 | 74 | 1009.6 |
| 20260901205504 | 66 | 188 | 3.0 | 11.0 | 0.00 | 0.00 | 0.00 | 74 | 1009.6 |
| 20260901205005 | 66 | 161 | 6.0 | 11.0 | 0.00 | 0.00 | 0.00 | 72 | 1009.6 |
| 20260901204504 | 66 | 178 | 4.0 | 10.0 | 0.00 | 0.00 | 0.00 | 73 | 1009.5 |
| 20260901204004 | 66 | 102 | 4.0 | 11.0 | 0.00 | 0.00 | 0.00 | 74 | 1009.4 |
| 20260901203503 | 66 | 150 | 4.0 | 11.0 | 0.00 | 0.00 | 0.00 | 74 | 1009.4 |
| 20260901203004 | 65 | 185 | 5.0 | 11.0 | 0.00 | 0.00 | 0.00 | 74 | 1009.5 |
| 20260901202004 | 66 | 113 | 4.0 | 11.0 | 0.00 | 0.00 | 0.00 | 72 | 1009.4 |
| 20260901201504 | 67 | 123 | 5.0 | 10.0 | 0.00 | 0.00 | 0.00 | 71 | 1009.4 |
| 20260901200503 | 67 | 269 | 4.0 | 10.0 | 0.00 | 0.00 | 0.00 | 71 | 1009.3 |
| 20260901200007 | 67 | 333 | 4.0 | 12.0 | 0.00 | 0.00 | 0.00 | 70 | 1009.4 |
| 20260901195503 | 68 | 178 | 4.0 | 12.0 | 0.00 | 0.00 | 0.00 | 69 | 1009.3 |
| 20260901195005 | 68 | 269 | 2.0 | 10.0 | 0.00 | 0.00 | 0.00 | 72 | 1009.3 |
| 20260901194503 | 67 | 305 | 4.0 | 10.0 | 0.00 | 0.00 | 0.00 | 72 | 1009.3 |
| 20260901194004 | 67 | 191 | 2.0 | 11.0 | 0.00 | 0.00 | 0.00 | 72 | 1009.4 |
| 20260901193503 | 67 | 152 | 3.0 | 11.0 | 0.00 | 0.00 | 0.00 | 73 | 1009.3 |
| 20260901193004 | 67 | 163 | 3.0 | 12.0 | 0.00 | 0.00 | 0.00 | 73 | 1009.4 |
| 20260901192504 | 67 | 354 | 4.0 | 12.0 | 0.00 | 0.00 | 0.00 | 71 | 1009.3 |
| 20260901191504 | 67 | 206 | 4.0 | 9.0 | 0.00 | 0.00 | 0.00 | 72 | 1009.3 |
| 20260901191004 | 67 | 197 | 4.0 | 14.0 | 0.00 | 0.00 | 0.00 | 72 | 1009.4 |
| 20260901190007 | 66 | 138 | 3.0 | 10.0 | 0.00 | 0.00 | 0.00 | 73 | 1009.3 |
| 20260901185505 | 66 | 279 | 3.0 | 9.0 | 0.00 | 0.00 | 0.00 | 73 | 1009.4 |
| 20260901185004 | 66 | 1 | 3.0 | 11.0 | 0.00 | 0.00 | 0.00 | 73 | 1009.3 |
| 20260901184504 | 65 | 210 | 5.0 | 11.0 | 0.00 | 0.00 | 0.00 | 73 | 1009.4 |
| 20260901184005 | 66 | 28 | 3.0 | 8.0 | 0.00 | 0.00 | 0.00 | 74 | 1009.4 |
| 20260901183504 | 65 | 269 | 3.0 | 8.0 | 0.00 | 0.00 | 0.00 | 73 | 1009.5 |
| 20260901183004 | 65 | 15 | 2.0 | 9.0 | 0.00 | 0.00 | 0.00 | 74 | 1009.5 |
| 20260901182503 | 65 | 306 | 3.0 | 9.0 | 0.00 | 0.00 | 0.00 | 75 | 1009.5 |
| 20260901182004 | 65 | 133 | 4.0 | 7.0 | 0.00 | 0.00 | 0.00 | 74 | 1009.6 |
| 20260901181504 | 64 | 161 | 4.0 | 8.0 | 0.00 | 0.00 | 0.00 | 74 | 1009.6 |
| 20260901181004 | 64 | 178 | 3.0 | 9.0 | 0.00 | 0.00 | 0.00 | 73 | 1009.7 |
| 20260901180504 | 64 | 152 | 4.0 | 9.0 | 0.00 | 0.00 | 0.00 | 75 | 1009.5 |
| 20260901180007 | 64 | 211 | 2.0 | 8.0 | 0.00 | 0.00 | 0.00 | 75 | 1009.7 |
| 20260901175503 | 64 | 199 | 3.0 | 8.0 | 0.00 | 0.00 | 0.00 | 75 | 1009.7 |
| 20260901175004 | 64 | 295 | 2.0 | 8.0 | 0.00 | 0.00 | 0.00 | 76 | 1009.6 |
| 20260901174504 | 63 | 223 | 2.0 | 8.0 | 0.00 | 0.00 | 0.00 | 78 | 1009.6 |
| 20260901174005 | 63 | 281 | 3.0 | 9.0 | 0.00 | 0.00 | 0.00 | 78 | 1009.5 |
| 20260901173504 | 63 | 178 | 4.0 | 9.0 | 0.00 | 0.00 | 0.00 | 77 | 1009.5 |
| 20260901173004 | 63 | 171 | 2.0 | 7.0 | 0.00 | 0.00 | 0.00 | 78 | 1009.6 |
| 20260901172503 | 63 | 144 | 3.0 | 8.0 | 0.00 | 0.00 | 0.00 | 77 | 1009.6 |
| 20260901172004 | 62 | 135 | 3.0 | 8.0 | 0.00 | 0.00 | 0.00 | 77 | 1009.6 |
| 20260901171504 | 62 | 117 | 3.0 | 10.0 | 0.00 | 0.00 | 0.00 | 79 | 1009.6 |
| 20260901171004 | 62 | 213 | 3.0 | 10.0 | 0.00 | 0.00 | 0.00 | 79 | 1009.6 |
| 20260901170504 | 62 | 186 | 3.0 | 7.0 | 0.00 | 0.00 | 0.00 | 79 | 1009.5 |
| 20260901170006 | 62 | 120 | 2.0 | 8.0 | 0.00 | 0.00 | 0.00 | 81 | 1009.6 |